,,PressureMeas_1m,,PRMeasQMR101_1,,RHStat155_1m_1,,SRMeasQMS101R_1m,,TAStat155_1m_1,,GenWind_1,,GenWind_1,
2018-11-28, 00:00:06,VALID,919.219,VALID,0.0,VALID,96.977,VALID,-0.007,VALID,20.546,VALID,320.0,VALID,0.0,
2018-11-28, 00:01:06,VALID,919.241,VALID,0.0,VALID,97.099,VALID,-0.012,VALID,20.552,VALID,320.0,VALID,0.0,
2018-11-28, 00:02:06,VALID,919.239,VALID,0.0,VALID,97.098,VALID,-0.008,VALID,20.542,VALID,320.0,VALID,0.0,
2018-11-28, 00:03:06,VALID,919.233,VALID,0.0,VALID,96.99,VALID,-0.002,VALID,20.505,VALID,320.0,VALID,0.0,
2018-11-28, 00:04:06,VALID,919.226,VALID,0.0,VALID,96.945,VALID,-0.017,VALID,20.477,VALID,320.0,VALID,0.0,
2018-11-28, 00:05:06,VALID,919.209,VALID,0.0,VALID,97.166,VALID,-0.009,VALID,20.479,VALID,320.0,VALID,0.0,
2018-11-28, 00:06:06,VALID,919.184,VALID,0.0,VALID,97.143,VALID,-0.006,VALID,20.47,VALID,320.0,VALID,0.0,
2018-11-28, 00:07:06,VALID,919.173,VALID,0.0,VALID,97.042,VALID,-0.018,VALID,20.443,VALID,320.0,VALID,0.0,
2018-11-28, 00:08:06,VALID,919.185,VALID,0.0,VALID,96.953,VALID,-0.031,VALID,20.42,VALID,320.0,VALID,0.0,
2018-11-28, 00:09:06,VALID,919.184,VALID,0.0,VALID,96.777,VALID,-0.026,VALID,20.379,VALID,320.0,VALID,0.0,
2018-11-28, 00:10:06,VALID,919.199,VALID,0.0,VALID,96.615,VALID,0.006,VALID,20.344,VALID,320.0,VALID,0.0,
2018-11-28, 00:11:06,VALID,919.218,VALID,0.0,VALID,96.477,VALID,-0.008,VALID,20.303,VALID,320.0,VALID,0.0,
2018-11-28, 00:12:06,VALID,919.211,VALID,0.0,VALID,96.351,VALID,0.013,VALID,20.259,VALID,320.0,VALID,0.0,
2018-11-28, 00:13:06,VALID,919.199,VALID,0.0,VALID,96.411,VALID,0.009,VALID,20.251,VALID,10.0,VALID,0.0,
2018-11-28, 00:14:06,VALID,919.194,VALID,0.0,VALID,96.994,VALID,-0.002,VALID,20.31,VALID,64.0,VALID,0.0,
2018-11-28, 00:15:06,VALID,919.185,VALID,0.0,VALID,97.229,VALID,-0.014,VALID,20.324,VALID,66.0,VALID,0.0,
2018-11-28, 00:16:06,VALID,919.187,VALID,0.0,VALID,97.417,VALID,-0.002,VALID,20.331,VALID,66.0,VALID,0.0,
2018-11-28, 00:17:06,VALID,919.157,VALID,0.0,VALID,97.57,VALID,0.008,VALID,20.338,VALID,66.0,VALID,0.0,
2018-11-28, 00:18:06,VALID,919.173,VALID,0.0,VALID,97.768,VALID,0.011,VALID,20.354,VALID,66.0,VALID,0.0,
2018-11-28, 00:19:06,VALID,919.174,VALID,0.0,VALID,97.812,VALID,-0.011,VALID,20.345,VALID,66.0,VALID,0.0,
2018-11-28, 00:20:06,VALID,919.18,VALID,0.0,VALID,97.691,VALID,-0.01,VALID,20.335,VALID,332.0,VALID,0.0,
2018-11-28, 00:21:06,VALID,919.177,VALID,0.0,VALID,97.869,VALID,-0.006,VALID,20.415,VALID,298.0,VALID,0.0,
2018-11-28, 00:22:06,VALID,919.162,VALID,0.0,VALID,97.962,VALID,0.002,VALID,20.445,VALID,298.0,VALID,0.0,
2018-11-28, 00:23:06,VALID,919.143,VALID,0.0,VALID,98.026,VALID,0.004,VALID,20.458,VALID,298.0,VALID,0.0,
2018-11-28, 00:24:06,VALID,919.128,VALID,0.0,VALID,98.055,VALID,0.001,VALID,20.477,VALID,298.0,VALID,0.0,
2018-11-28, 00:25:06,VALID,919.133,VALID,0.0,VALID,98.011,VALID,-0.01,VALID,20.489,VALID,298.0,VALID,0.0,
2018-11-28, 00:26:06,VALID,919.113,VALID,0.0,VALID,98.057,VALID,-0.002,VALID,20.523,VALID,298.0,VALID,0.0,
2018-11-28, 00:27:06,VALID,919.098,VALID,0.0,VALID,97.968,VALID,0.003,VALID,20.521,VALID,298.0,VALID,0.0,
2018-11-28, 00:28:06,VALID,919.092,VALID,0.0,VALID,97.856,VALID,-0.005,VALID,20.526,VALID,298.0,VALID,0.0,
2018-11-28, 00:29:06,VALID,919.07,VALID,0.0,VALID,97.883,VALID,-0.011,VALID,20.544,VALID,298.0,VALID,0.0,
2018-11-28, 00:30:06,VALID,919.064,VALID,0.0,VALID,97.934,VALID,0.009,VALID,20.553,VALID,298.0,VALID,0.0,
2018-11-28, 00:31:06,VALID,919.053,VALID,0.0,VALID,97.941,VALID,0.003,VALID,20.551,VALID,298.0,VALID,0.0,
2018-11-28, 00:32:06,VALID,919.07,VALID,0.0,VALID,97.945,VALID,-0.012,VALID,20.543,VALID,298.0,VALID,0.0,
2018-11-28, 00:33:06,VALID,919.044,VALID,0.0,VALID,97.974,VALID,0.004,VALID,20.555,VALID,298.0,VALID,0.0,
2018-11-28, 00:34:06,VALID,919.001,VALID,0.0,VALID,97.987,VALID,-0.003,VALID,20.557,VALID,298.0,VALID,0.0,
2018-11-28, 00:35:06,VALID,918.992,VALID,0.0,VALID,97.709,VALID,0.005,VALID,20.456,VALID,298.0,VALID,0.0,
2018-11-28, 00:36:06,VALID,918.975,VALID,0.0,VALID,97.083,VALID,0.002,VALID,20.289,VALID,298.0,VALID,0.0,
2018-11-28, 00:37:06,VALID,918.947,VALID,0.0,VALID,96.862,VALID,0.005,VALID,20.241,VALID,298.0,VALID,0.0,
2018-11-28, 00:38:06,VALID,918.882,VALID,0.0,VALID,96.723,VALID,0.01,VALID,20.218,VALID,298.0,VALID,0.0,
2018-11-28, 00:39:06,VALID,918.894,VALID,0.0,VALID,96.589,VALID,0.01,VALID,20.188,VALID,298.0,VALID,0.0,
2018-11-28, 00:40:06,VALID,918.88,VALID,0.0,VALID,96.661,VALID,0.001,VALID,20.16,VALID,298.0,VALID,0.0,
2018-11-28, 00:41:06,VALID,918.878,VALID,0.0,VALID,96.829,VALID,0.014,VALID,20.132,VALID,298.0,VALID,0.0,
2018-11-28, 00:42:06,VALID,918.879,VALID,0.0,VALID,96.86,VALID,0.034,VALID,20.095,VALID,298.0,VALID,0.0,
2018-11-28, 00:43:06,VALID,918.869,VALID,0.0,VALID,97.042,VALID,0.014,VALID,20.081,VALID,298.0,VALID,0.0,
2018-11-28, 00:44:06,VALID,918.88,VALID,0.0,VALID,97.396,VALID,0.022,VALID,20.111,VALID,298.0,VALID,0.0,
2018-11-28, 00:45:06,VALID,918.872,VALID,0.0,VALID,97.644,VALID,0.011,VALID,20.15,VALID,298.0,VALID,0.0,
2018-11-28, 00:46:06,VALID,918.853,VALID,0.0,VALID,97.888,VALID,-0.008,VALID,20.201,VALID,298.0,VALID,0.0,
2018-11-28, 00:47:06,VALID,918.857,VALID,0.0,VALID,98.125,VALID,0.007,VALID,20.279,VALID,298.0,VALID,0.0,
2018-11-28, 00:48:06,VALID,918.846,VALID,0.0,VALID,97.961,VALID,0.008,VALID,20.227,VALID,298.0,VALID,0.0,
2018-11-28, 00:49:06,VALID,918.811,VALID,0.0,VALID,97.67,VALID,0.0,VALID,20.119,VALID,298.0,VALID,0.0,
2018-11-28, 00:50:06,VALID,918.782,VALID,0.0,VALID,97.64,VALID,0.015,VALID,20.099,VALID,298.0,VALID,0.0,
2018-11-28, 00:51:06,VALID,918.766,VALID,0.0,VALID,97.542,VALID,0.026,VALID,20.06,VALID,298.0,VALID,0.0,
2018-11-28, 00:52:06,VALID,918.751,VALID,0.0,VALID,97.604,VALID,0.027,VALID,20.039,VALID,298.0,VALID,0.0,
2018-11-28, 00:53:06,VALID,918.745,VALID,0.0,VALID,97.7,VALID,0.033,VALID,20.028,VALID,298.0,VALID,0.0,
2018-11-28, 00:54:06,VALID,918.724,VALID,0.0,VALID,97.908,VALID,0.012,VALID,20.056,VALID,298.0,VALID,0.0,
2018-11-28, 00:55:06,VALID,918.715,VALID,0.0,VALID,98.016,VALID,-0.007,VALID,20.037,VALID,298.0,VALID,0.0,
2018-11-28, 00:56:06,VALID,918.701,VALID,0.0,VALID,98.028,VALID,-0.012,VALID,20.005,VALID,314.0,VALID,0.0,
2018-11-28, 00:57:06,VALID,918.686,VALID,0.0,VALID,98.207,VALID,0.017,VALID,20.056,VALID,334.0,VALID,0.0,
2018-11-28, 00:58:06,VALID,918.662,VALID,0.0,VALID,98.393,VALID,0.007,VALID,20.149,VALID,334.0,VALID,0.0,
2018-11-28, 00:59:06,VALID,918.631,VALID,0.0,VALID,98.54,VALID,0.002,VALID,20.236,VALID,334.0,VALID,0.0,
2018-11-28, 01:00:06,VALID,918.609,VALID,0.0,VALID,98.581,VALID,0.007,VALID,20.274,VALID,333.0,VALID,0.0,
2018-11-28, 01:01:06,VALID,918.605,VALID,0.0,VALID,98.632,VALID,0.015,VALID,20.303,VALID,327.0,VALID,0.0,
2018-11-28, 01:02:06,VALID,918.559,VALID,0.0,VALID,98.71,VALID,0.008,VALID,20.36,VALID,324.0,VALID,0.0,
2018-11-28, 01:03:06,VALID,918.544,VALID,0.0,VALID,98.746,VALID,0.023,VALID,20.391,VALID,324.0,VALID,0.0,
2018-11-28, 01:04:06,VALID,918.538,VALID,0.0,VALID,98.734,VALID,0.011,VALID,20.396,VALID,325.0,VALID,0.0,
2018-11-28, 01:05:06,VALID,918.532,VALID,0.0,VALID,98.642,VALID,0.019,VALID,20.319,VALID,326.0,VALID,0.0,
2018-11-28, 01:06:06,VALID,918.517,VALID,0.0,VALID,98.647,VALID,0.014,VALID,20.264,VALID,326.0,VALID,0.0,
2018-11-28, 01:07:06,VALID,918.527,VALID,0.0,VALID,98.62,VALID,0.007,VALID,20.232,VALID,326.0,VALID,0.0,
2018-11-28, 01:08:06,VALID,918.527,VALID,0.0,VALID,98.687,VALID,0.012,VALID,20.246,VALID,326.0,VALID,0.0,
2018-11-28, 01:09:06,VALID,918.527,VALID,0.0,VALID,98.743,VALID,0.003,VALID,20.273,VALID,326.0,VALID,0.0,
2018-11-28, 01:10:06,VALID,918.527,VALID,0.0,VALID,98.749,VALID,0.007,VALID,20.279,VALID,326.0,VALID,0.0,
2018-11-28, 01:11:06,VALID,918.521,VALID,0.0,VALID,98.771,VALID,0.01,VALID,20.309,VALID,328.0,VALID,0.0,
2018-11-28, 01:12:06,VALID,918.504,VALID,0.0,VALID,98.826,VALID,0.015,VALID,20.333,VALID,336.0,VALID,0.0,
2018-11-28, 01:13:06,VALID,918.49,VALID,0.0,VALID,98.819,VALID,0.026,VALID,20.333,VALID,1.0,VALID,0.0,
2018-11-28, 01:14:06,VALID,918.484,VALID,0.0,VALID,98.815,VALID,0.024,VALID,20.323,VALID,4.0,VALID,0.0,
2018-11-28, 01:15:06,VALID,918.479,VALID,0.0,VALID,98.813,VALID,-0.003,VALID,20.305,VALID,18.0,VALID,0.0,
2018-11-28, 01:16:06,VALID,918.472,VALID,0.0,VALID,98.848,VALID,0.014,VALID,20.31,VALID,34.0,VALID,0.0,
2018-11-28, 01:17:06,VALID,918.469,VALID,0.0,VALID,98.87,VALID,0.007,VALID,20.301,VALID,36.0,VALID,0.0,
2018-11-28, 01:18:06,VALID,918.456,VALID,0.0,VALID,98.873,VALID,0.011,VALID,20.288,VALID,22.0,VALID,0.0,
2018-11-28, 01:19:06,VALID,918.433,VALID,0.0,VALID,98.881,VALID,0.018,VALID,20.281,VALID,31.0,VALID,0.0,
2018-11-28, 01:20:06,VALID,918.426,VALID,0.0,VALID,98.923,VALID,0.003,VALID,20.311,VALID,19.0,VALID,0.0,
2018-11-28, 01:21:06,VALID,918.425,VALID,0.0,VALID,98.959,VALID,0.001,VALID,20.343,VALID,16.0,VALID,0.0,
2018-11-28, 01:22:06,VALID,918.412,VALID,0.0,VALID,98.955,VALID,0.016,VALID,20.35,VALID,15.0,VALID,0.0,
2018-11-28, 01:23:06,VALID,918.402,VALID,0.0,VALID,98.938,VALID,0.023,VALID,20.314,VALID,15.0,VALID,0.0,
2018-11-28, 01:24:06,VALID,918.39,VALID,0.0,VALID,98.932,VALID,0.011,VALID,20.285,VALID,27.0,VALID,0.0,
2018-11-28, 01:25:06,VALID,918.372,VALID,0.0,VALID,98.942,VALID,-0.003,VALID,20.277,VALID,45.0,VALID,0.0,
2018-11-28, 01:26:06,VALID,918.364,VALID,0.0,VALID,98.946,VALID,0.005,VALID,20.27,VALID,36.0,VALID,0.0,
2018-11-28, 01:27:06,VALID,918.338,VALID,0.0,VALID,98.943,VALID,-0.011,VALID,20.247,VALID,43.0,VALID,0.0,
2018-11-28, 01:28:06,VALID,918.323,VALID,0.0,VALID,98.967,VALID,-0.031,VALID,20.228,VALID,65.0,VALID,0.0,
2018-11-28, 01:29:06,VALID,918.318,VALID,0.0,VALID,98.95,VALID,-0.032,VALID,20.217,VALID,67.0,VALID,0.0,
2018-11-28, 01:30:06,VALID,918.307,VALID,0.0,VALID,98.981,VALID,-0.012,VALID,20.21,VALID,82.0,VALID,0.0,
2018-11-28, 01:31:06,VALID,918.307,VALID,0.0,VALID,98.964,VALID,-0.005,VALID,20.199,VALID,93.0,VALID,0.0,
2018-11-28, 01:32:06,VALID,918.287,VALID,0.0,VALID,98.97,VALID,-0.017,VALID,20.182,VALID,93.0,VALID,0.0,
2018-11-28, 01:33:06,VALID,918.288,VALID,0.0,VALID,98.953,VALID,-0.001,VALID,20.158,VALID,93.0,VALID,0.0,
2018-11-28, 01:34:06,VALID,918.282,VALID,0.0,VALID,98.969,VALID,-0.008,VALID,20.137,VALID,93.0,VALID,0.0,
2018-11-28, 01:35:06,VALID,918.271,VALID,0.0,VALID,98.968,VALID,0.01,VALID,20.123,VALID,94.0,VALID,0.0,
2018-11-28, 01:36:06,VALID,918.247,VALID,0.0,VALID,98.963,VALID,-0.004,VALID,20.103,VALID,95.0,VALID,0.0,
2018-11-28, 01:37:06,VALID,918.233,VALID,0.0,VALID,98.96,VALID,-0.02,VALID,20.094,VALID,91.0,VALID,0.0,
2018-11-28, 01:38:06,VALID,918.218,VALID,0.0,VALID,98.967,VALID,-0.003,VALID,20.072,VALID,90.0,VALID,0.0,
2018-11-28, 01:39:06,VALID,918.188,VALID,0.0,VALID,98.958,VALID,-0.021,VALID,20.062,VALID,88.0,VALID,0.0,
2018-11-28, 01:40:06,VALID,918.198,VALID,0.0,VALID,98.965,VALID,0.006,VALID,20.045,VALID,87.0,VALID,0.0,
2018-11-28, 01:41:06,VALID,918.166,VALID,0.0,VALID,98.975,VALID,0.035,VALID,20.034,VALID,87.0,VALID,0.0,
2018-11-28, 01:42:06,VALID,918.185,VALID,0.0,VALID,98.958,VALID,0.021,VALID,20.029,VALID,91.0,VALID,0.0,
2018-11-28, 01:43:06,VALID,918.178,VALID,0.0,VALID,98.968,VALID,0.014,VALID,20.019,VALID,97.0,VALID,0.0,
2018-11-28, 01:44:06,VALID,918.169,VALID,0.0,VALID,98.967,VALID,0.018,VALID,20.005,VALID,97.0,VALID,0.0,
2018-11-28, 01:45:06,VALID,918.13,VALID,0.0,VALID,98.981,VALID,0.016,VALID,19.995,VALID,97.0,VALID,0.0,
2018-11-28, 01:46:06,VALID,918.138,VALID,0.0,VALID,98.966,VALID,0.019,VALID,19.991,VALID,104.0,VALID,0.0,
2018-11-28, 01:47:06,VALID,918.121,VALID,0.0,VALID,98.964,VALID,0.006,VALID,20.002,VALID,111.0,VALID,0.0,
2018-11-28, 01:48:06,VALID,918.11,VALID,0.0,VALID,98.966,VALID,0.018,VALID,20.005,VALID,121.0,VALID,0.0,
2018-11-28, 01:49:06,VALID,918.106,VALID,0.0,VALID,98.975,VALID,-0.0,VALID,20.015,VALID,131.0,VALID,0.0,
2018-11-28, 01:50:06,VALID,918.104,VALID,0.0,VALID,99.007,VALID,-0.002,VALID,20.055,VALID,135.0,VALID,0.0,
2018-11-28, 01:51:06,VALID,918.098,VALID,0.0,VALID,99.007,VALID,0.009,VALID,20.088,VALID,133.0,VALID,0.0,
2018-11-28, 01:52:06,VALID,918.104,VALID,0.0,VALID,99.003,VALID,0.006,VALID,20.083,VALID,136.0,VALID,0.0,
2018-11-28, 01:53:06,VALID,918.077,VALID,0.0,VALID,98.975,VALID,0.006,VALID,20.054,VALID,131.0,VALID,0.0,
2018-11-28, 01:54:06,VALID,918.073,VALID,0.0,VALID,98.936,VALID,0.001,VALID,20.012,VALID,123.0,VALID,0.0,
2018-11-28, 01:55:06,VALID,918.057,VALID,0.0,VALID,98.955,VALID,-0.008,VALID,19.984,VALID,104.0,VALID,0.0,
2018-11-28, 01:56:06,VALID,918.046,VALID,0.0,VALID,98.929,VALID,-0.006,VALID,19.954,VALID,98.0,VALID,0.0,
2018-11-28, 01:57:06,VALID,918.021,VALID,0.0,VALID,98.944,VALID,-0.012,VALID,19.933,VALID,85.0,VALID,0.0,
2018-11-28, 01:58:06,VALID,917.994,VALID,0.0,VALID,98.939,VALID,0.008,VALID,19.909,VALID,80.0,VALID,0.0,
2018-11-28, 01:59:06,VALID,917.998,VALID,0.0,VALID,98.963,VALID,-0.004,VALID,19.907,VALID,86.0,VALID,0.0,
2018-11-28, 02:00:06,VALID,917.97,VALID,0.0,VALID,98.994,VALID,0.022,VALID,19.92,VALID,90.0,VALID,0.0,
2018-11-28, 02:01:06,VALID,917.969,VALID,0.0,VALID,98.997,VALID,0.007,VALID,19.912,VALID,103.0,VALID,0.0,
2018-11-28, 02:02:06,VALID,917.949,VALID,0.0,VALID,98.981,VALID,0.0,VALID,19.889,VALID,108.0,VALID,0.0,
2018-11-28, 02:03:06,VALID,917.955,VALID,0.0,VALID,98.992,VALID,0.001,VALID,19.859,VALID,107.0,VALID,0.0,
2018-11-28, 02:04:06,VALID,917.916,VALID,0.0,VALID,99.014,VALID,-0.005,VALID,19.866,VALID,113.0,VALID,0.0,
2018-11-28, 02:05:06,VALID,917.91,VALID,0.0,VALID,99.033,VALID,0.005,VALID,19.888,VALID,114.0,VALID,0.0,
2018-11-28, 02:06:06,VALID,917.898,VALID,0.0,VALID,99.096,VALID,0.002,VALID,19.922,VALID,118.0,VALID,0.0,
2018-11-28, 02:07:06,VALID,917.89,VALID,0.0,VALID,99.082,VALID,-0.004,VALID,19.94,VALID,115.0,VALID,0.0,
2018-11-28, 02:08:06,VALID,917.875,VALID,0.0,VALID,99.085,VALID,0.006,VALID,19.939,VALID,105.0,VALID,0.0,
2018-11-28, 02:09:06,VALID,917.853,VALID,0.0,VALID,99.089,VALID,0.003,VALID,19.938,VALID,103.0,VALID,0.0,
2018-11-28, 02:10:06,VALID,917.859,VALID,0.0,VALID,99.1,VALID,-0.018,VALID,19.937,VALID,100.0,VALID,0.0,
2018-11-28, 02:11:06,VALID,917.844,VALID,0.0,VALID,99.071,VALID,-0.034,VALID,19.931,VALID,96.0,VALID,0.0,
2018-11-28, 02:12:06,VALID,917.836,VALID,0.0,VALID,99.081,VALID,-0.026,VALID,19.907,VALID,103.0,VALID,0.0,
2018-11-28, 02:13:06,VALID,917.816,VALID,0.0,VALID,99.096,VALID,-0.032,VALID,19.908,VALID,110.0,VALID,0.0,
2018-11-28, 02:14:06,VALID,917.819,VALID,0.0,VALID,99.105,VALID,-0.012,VALID,19.924,VALID,96.0,VALID,0.0,
2018-11-28, 02:15:06,VALID,917.828,VALID,0.0,VALID,99.134,VALID,-0.027,VALID,19.935,VALID,86.0,VALID,0.0,
2018-11-28, 02:16:06,VALID,917.833,VALID,0.0,VALID,99.1,VALID,-0.018,VALID,19.931,VALID,83.0,VALID,0.0,
2018-11-28, 02:17:06,VALID,917.834,VALID,0.0,VALID,99.099,VALID,-0.025,VALID,19.912,VALID,83.0,VALID,0.0,
2018-11-28, 02:18:06,VALID,917.839,VALID,0.0,VALID,99.099,VALID,-0.006,VALID,19.905,VALID,83.0,VALID,0.0,
2018-11-28, 02:19:06,VALID,917.844,VALID,0.0,VALID,99.109,VALID,-0.022,VALID,19.892,VALID,83.0,VALID,0.0,
2018-11-28, 02:20:06,VALID,917.835,VALID,0.0,VALID,99.117,VALID,-0.022,VALID,19.885,VALID,87.0,VALID,0.0,
2018-11-28, 02:21:06,VALID,917.822,VALID,0.0,VALID,99.114,VALID,-0.024,VALID,19.874,VALID,88.0,VALID,0.0,
2018-11-28, 02:22:06,VALID,917.824,VALID,0.0,VALID,99.098,VALID,-0.022,VALID,19.843,VALID,101.0,VALID,0.0,
2018-11-28, 02:23:06,VALID,917.792,VALID,0.0,VALID,99.091,VALID,-0.004,VALID,19.825,VALID,107.0,VALID,0.0,
2018-11-28, 02:24:06,VALID,917.797,VALID,0.0,VALID,99.121,VALID,0.002,VALID,19.83,VALID,110.0,VALID,0.0,
2018-11-28, 02:25:06,VALID,917.794,VALID,0.0,VALID,99.118,VALID,-0.02,VALID,19.826,VALID,111.0,VALID,0.0,
2018-11-28, 02:26:06,VALID,917.787,VALID,0.0,VALID,99.116,VALID,-0.034,VALID,19.812,VALID,101.0,VALID,0.0,
2018-11-28, 02:27:06,VALID,917.787,VALID,0.0,VALID,99.113,VALID,-0.041,VALID,19.805,VALID,91.0,VALID,0.0,
2018-11-28, 02:28:06,VALID,917.786,VALID,0.0,VALID,99.131,VALID,-0.032,VALID,19.784,VALID,86.0,VALID,0.0,
2018-11-28, 02:29:06,VALID,917.788,VALID,0.0,VALID,99.119,VALID,-0.034,VALID,19.776,VALID,86.0,VALID,0.0,
2018-11-28, 02:30:06,VALID,917.79,VALID,0.0,VALID,99.122,VALID,-0.04,VALID,19.756,VALID,80.0,VALID,0.0,
2018-11-28, 02:31:06,VALID,917.8,VALID,0.0,VALID,99.102,VALID,-0.063,VALID,19.741,VALID,79.0,VALID,0.0,
2018-11-28, 02:32:06,VALID,917.792,VALID,0.0,VALID,99.138,VALID,-0.045,VALID,19.743,VALID,89.0,VALID,0.0,
2018-11-28, 02:33:06,VALID,917.795,VALID,0.0,VALID,99.122,VALID,-0.045,VALID,19.735,VALID,97.0,VALID,0.0,
2018-11-28, 02:34:06,VALID,917.789,VALID,0.0,VALID,99.119,VALID,-0.048,VALID,19.733,VALID,103.0,VALID,0.0,
2018-11-28, 02:35:06,VALID,917.792,VALID,0.0,VALID,99.124,VALID,-0.043,VALID,19.723,VALID,109.0,VALID,0.0,
2018-11-28, 02:36:06,VALID,917.793,VALID,0.0,VALID,99.133,VALID,-0.045,VALID,19.753,VALID,113.0,VALID,0.0,
2018-11-28, 02:37:06,VALID,917.791,VALID,0.0,VALID,99.169,VALID,-0.04,VALID,19.822,VALID,117.0,VALID,0.0,
2018-11-28, 02:38:06,VALID,917.802,VALID,0.0,VALID,99.184,VALID,-0.044,VALID,19.867,VALID,113.0,VALID,0.0,
2018-11-28, 02:39:06,VALID,917.793,VALID,0.0,VALID,99.201,VALID,-0.037,VALID,19.9,VALID,124.0,VALID,0.0,
2018-11-28, 02:40:06,VALID,917.807,VALID,0.0,VALID,99.178,VALID,-0.0,VALID,19.918,VALID,130.0,VALID,0.0,
2018-11-28, 02:41:06,VALID,917.814,VALID,0.0,VALID,99.207,VALID,0.004,VALID,19.936,VALID,116.0,VALID,0.0,
2018-11-28, 02:42:06,VALID,917.819,VALID,0.0,VALID,99.184,VALID,0.006,VALID,19.926,VALID,100.0,VALID,0.0,
2018-11-28, 02:43:06,VALID,917.835,VALID,0.0,VALID,99.18,VALID,0.014,VALID,19.921,VALID,102.0,VALID,0.0,
2018-11-28, 02:44:06,VALID,917.853,VALID,0.0,VALID,99.178,VALID,0.011,VALID,19.91,VALID,105.0,VALID,0.0,
2018-11-28, 02:45:06,VALID,917.863,VALID,0.0,VALID,99.18,VALID,-0.008,VALID,19.921,VALID,97.0,VALID,0.0,
2018-11-28, 02:46:06,VALID,917.867,VALID,0.0,VALID,99.212,VALID,-0.024,VALID,19.954,VALID,99.0,VALID,0.0,
2018-11-28, 02:47:06,VALID,917.875,VALID,0.0,VALID,99.209,VALID,-0.004,VALID,19.963,VALID,79.0,VALID,0.0,
2018-11-28, 02:48:06,VALID,917.878,VALID,0.0,VALID,99.215,VALID,0.012,VALID,19.969,VALID,79.0,VALID,0.0,
2018-11-28, 02:49:06,VALID,917.873,VALID,0.0,VALID,99.196,VALID,-0.006,VALID,19.983,VALID,91.0,VALID,0.0,
2018-11-28, 02:50:06,VALID,917.884,VALID,0.0,VALID,99.198,VALID,0.007,VALID,19.985,VALID,96.0,VALID,0.0,
2018-11-28, 02:51:06,VALID,917.878,VALID,0.0,VALID,99.219,VALID,0.014,VALID,19.994,VALID,97.0,VALID,0.0,
2018-11-28, 02:52:06,VALID,917.883,VALID,0.0,VALID,99.209,VALID,-0.003,VALID,20.004,VALID,95.0,VALID,0.0,
2018-11-28, 02:53:06,VALID,917.872,VALID,0.0,VALID,99.237,VALID,-0.013,VALID,20.006,VALID,96.0,VALID,0.0,
2018-11-28, 02:54:06,VALID,917.863,VALID,0.0,VALID,99.214,VALID,0.01,VALID,19.99,VALID,113.0,VALID,0.0,
2018-11-28, 02:55:06,VALID,917.834,VALID,0.0,VALID,99.235,VALID,-0.024,VALID,20.013,VALID,142.0,VALID,0.0,
2018-11-28, 02:56:06,VALID,917.837,VALID,0.0,VALID,99.228,VALID,-0.016,VALID,20.046,VALID,146.0,VALID,0.0,
2018-11-28, 02:57:06,VALID,917.809,VALID,0.0,VALID,99.23,VALID,-0.017,VALID,20.049,VALID,139.0,VALID,0.0,
2018-11-28, 02:58:06,VALID,917.799,VALID,0.0,VALID,99.235,VALID,-0.03,VALID,20.062,VALID,133.0,VALID,0.0,
2018-11-28, 02:59:06,VALID,917.792,VALID,0.0,VALID,99.242,VALID,-0.022,VALID,20.067,VALID,135.0,VALID,0.0,
2018-11-28, 03:00:06,VALID,917.773,VALID,0.0,VALID,99.236,VALID,-0.022,VALID,20.045,VALID,133.0,VALID,0.0,
2018-11-28, 03:01:06,VALID,917.768,VALID,0.0,VALID,99.232,VALID,-0.035,VALID,20.048,VALID,126.0,VALID,0.0,
2018-11-28, 03:02:06,VALID,917.775,VALID,0.0,VALID,99.241,VALID,-0.045,VALID,20.078,VALID,126.0,VALID,0.0,
2018-11-28, 03:03:06,VALID,917.759,VALID,0.0,VALID,99.252,VALID,-0.026,VALID,20.066,VALID,131.0,VALID,0.0,
2018-11-28, 03:04:06,VALID,917.763,VALID,0.0,VALID,99.232,VALID,-0.03,VALID,20.023,VALID,135.0,VALID,0.0,
2018-11-28, 03:05:06,VALID,917.758,VALID,0.0,VALID,99.218,VALID,-0.02,VALID,20.004,VALID,130.0,VALID,0.0,
2018-11-28, 03:06:06,VALID,917.732,VALID,0.0,VALID,99.212,VALID,-0.017,VALID,19.989,VALID,123.0,VALID,0.0,
2018-11-28, 03:07:06,VALID,917.743,VALID,0.0,VALID,99.201,VALID,-0.018,VALID,19.952,VALID,126.0,VALID,0.0,
2018-11-28, 03:08:06,VALID,917.721,VALID,0.0,VALID,99.23,VALID,-0.033,VALID,19.945,VALID,124.0,VALID,0.0,
2018-11-28, 03:09:06,VALID,917.697,VALID,0.0,VALID,99.216,VALID,-0.018,VALID,19.923,VALID,117.0,VALID,0.0,
2018-11-28, 03:10:06,VALID,917.667,VALID,0.0,VALID,99.23,VALID,0.012,VALID,19.901,VALID,114.0,VALID,0.0,
2018-11-28, 03:11:06,VALID,917.669,VALID,0.0,VALID,99.222,VALID,0.007,VALID,19.901,VALID,116.0,VALID,0.0,
2018-11-28, 03:12:06,VALID,917.653,VALID,0.0,VALID,99.228,VALID,-0.016,VALID,19.898,VALID,111.0,VALID,0.0,
2018-11-28, 03:13:06,VALID,917.629,VALID,0.0,VALID,99.238,VALID,-0.006,VALID,19.897,VALID,126.0,VALID,0.0,
2018-11-28, 03:14:06,VALID,917.633,VALID,0.0,VALID,99.244,VALID,-0.008,VALID,19.934,VALID,132.0,VALID,0.0,
2018-11-28, 03:15:06,VALID,917.634,VALID,0.0,VALID,99.242,VALID,-0.009,VALID,19.953,VALID,133.0,VALID,0.0,
2018-11-28, 03:16:06,VALID,917.616,VALID,0.0,VALID,99.268,VALID,-0.007,VALID,19.971,VALID,147.0,VALID,0.0,
2018-11-28, 03:17:06,VALID,917.606,VALID,0.0,VALID,99.261,VALID,0.0,VALID,19.962,VALID,125.0,VALID,0.0,
2018-11-28, 03:18:06,VALID,917.589,VALID,0.0,VALID,99.261,VALID,0.002,VALID,19.968,VALID,138.0,VALID,0.0,
2018-11-28, 03:19:06,VALID,917.58,VALID,0.0,VALID,99.263,VALID,0.005,VALID,19.967,VALID,133.0,VALID,0.0,
2018-11-28, 03:20:06,VALID,917.562,VALID,0.0,VALID,99.254,VALID,-0.012,VALID,19.965,VALID,136.0,VALID,0.0,
2018-11-28, 03:21:06,VALID,917.553,VALID,0.0,VALID,99.278,VALID,0.013,VALID,19.954,VALID,131.0,VALID,0.0,
2018-11-28, 03:22:06,VALID,917.542,VALID,0.0,VALID,99.274,VALID,0.012,VALID,19.953,VALID,131.0,VALID,0.0,
2018-11-28, 03:23:06,VALID,917.521,VALID,0.0,VALID,99.26,VALID,0.004,VALID,19.953,VALID,127.0,VALID,0.0,
2018-11-28, 03:24:06,VALID,917.532,VALID,0.0,VALID,99.259,VALID,0.007,VALID,19.951,VALID,114.0,VALID,0.0,
2018-11-28, 03:25:06,VALID,917.516,VALID,0.0,VALID,99.272,VALID,-0.013,VALID,19.936,VALID,106.0,VALID,0.0,
2018-11-28, 03:26:06,VALID,917.498,VALID,0.0,VALID,99.278,VALID,-0.023,VALID,19.932,VALID,113.0,VALID,0.0,
2018-11-28, 03:27:06,VALID,917.506,VALID,0.0,VALID,99.256,VALID,-0.03,VALID,19.94,VALID,122.0,VALID,0.0,
2018-11-28, 03:28:06,VALID,917.497,VALID,0.0,VALID,99.268,VALID,-0.019,VALID,19.944,VALID,100.0,VALID,0.0,
2018-11-28, 03:29:06,VALID,917.506,VALID,0.0,VALID,99.284,VALID,-0.029,VALID,19.954,VALID,118.0,VALID,0.0,
2018-11-28, 03:30:06,VALID,917.469,VALID,0.0,VALID,99.27,VALID,-0.023,VALID,19.971,VALID,125.0,VALID,0.0,
2018-11-28, 03:31:06,VALID,917.472,VALID,0.0,VALID,99.279,VALID,-0.01,VALID,19.976,VALID,130.0,VALID,0.0,
2018-11-28, 03:32:06,VALID,917.447,VALID,0.0,VALID,99.283,VALID,-0.034,VALID,19.981,VALID,119.0,VALID,0.0,
2018-11-28, 03:33:06,VALID,917.454,VALID,0.0,VALID,99.281,VALID,-0.031,VALID,19.971,VALID,117.0,VALID,0.0,
2018-11-28, 03:34:06,VALID,917.465,VALID,0.0,VALID,99.278,VALID,-0.022,VALID,19.959,VALID,118.0,VALID,0.0,
2018-11-28, 03:35:06,VALID,917.464,VALID,0.0,VALID,99.276,VALID,-0.028,VALID,19.963,VALID,113.0,VALID,0.0,
2018-11-28, 03:36:06,VALID,917.479,VALID,0.0,VALID,99.284,VALID,-0.02,VALID,19.953,VALID,132.0,VALID,0.0,
2018-11-28, 03:37:06,VALID,917.479,VALID,0.0,VALID,99.314,VALID,-0.036,VALID,19.975,VALID,115.0,VALID,0.0,
2018-11-28, 03:38:06,VALID,917.484,VALID,0.0,VALID,99.284,VALID,-0.014,VALID,19.98,VALID,116.0,VALID,0.0,
2018-11-28, 03:39:06,VALID,917.485,VALID,0.0,VALID,99.274,VALID,-0.031,VALID,19.978,VALID,98.0,VALID,0.0,
2018-11-28, 03:40:06,VALID,917.475,VALID,0.0,VALID,99.29,VALID,-0.013,VALID,19.967,VALID,106.0,VALID,0.0,
2018-11-28, 03:41:06,VALID,917.461,VALID,0.0,VALID,99.277,VALID,-0.016,VALID,19.952,VALID,124.0,VALID,0.0,
2018-11-28, 03:42:06,VALID,917.462,VALID,0.0,VALID,99.282,VALID,-0.002,VALID,19.948,VALID,107.0,VALID,0.0,